Le nostre stazioni meteo in Italia

Pubblicità
Il mio iltempo24.it
Palermo/Punta Raisi, Italia (16405): Temperatura & dewpoint: 16.10.2018 09:00:00 - 22.10.2018 09:00:00 (CEST)Palermo/Punta Raisi, Italia (16405): velocità del vento: 16.10.2018 09:00:00 - 22.10.2018 09:00:00 (CEST)Palermo/Punta Raisi, Italia (16405): direzione del vento: 16.10.2018 09:00:00 - 22.10.2018 09:00:00 (CEST)Palermo/Punta Raisi, Italia (16405): reduced air pressure: 16.10.2018 09:00:00 - 22.10.2018 09:00:00 (CEST)Palermo/Punta Raisi, Italia (16405): visibility: 16.10.2018 09:00:00 - 22.10.2018 09:00:00 (CEST)Palermo/Punta Raisi, Italia (16405): precipitazioni: 16.10.2018 09:00:00 - 22.10.2018 09:00:00 (CEST)
Data & Tempo tt [°C] td [°C] ff [km/h] ff [kn] dd ppp [hPa] vv [km] rr [mm]
22.10.2018 09:00:00 - - - - - - - -
22.10.2018 08:00:00 15,7 13,5 15 8 SSO 1011,7 10 -
22.10.2018 07:00:00 17,0 14,0 4 2 - - 10 -
22.10.2018 06:00:00 18,0 15,0 24 13 NE - 10 -
22.10.2018 05:00:00 18,3 16,1 41 22 NE 1013,2 8 0,0
22.10.2018 04:00:00 19,0 14,0 46 25 ONO - 10 -
22.10.2018 03:00:00 20,0 17,0 22 12 SSO - 10 -
22.10.2018 02:00:00 20,5 16,6 18 10 SSO 1013,2 10 -
22.10.2018 01:00:00 21,0 17,0 15 8 SSO - 10 -
22.10.2018 00:00:00 20,0 17,0 11 6 SSO - 10 -
21.10.2018 23:00:00 21,6 17,8 18 10 O 1015,1 10 0,0
21.10.2018 22:00:00 22,0 18,0 13 7 O - 10 -
21.10.2018 21:00:00 22,0 18,0 8 4 ONO - 10 -
21.10.2018 20:00:00 20,7 17,1 4 2 - 1015,2 10 -
21.10.2018 19:00:00 22,0 18,0 5 3 O - 10 -
21.10.2018 18:00:00 22,0 17,0 9 5 O - 10 -
21.10.2018 17:00:00 22,2 17,6 9 5 ONO 1015,6 10 0,0
21.10.2018 16:00:00 23,0 18,0 9 5 NO - 10 -
21.10.2018 15:00:00 23,0 17,0 8 4 ONO - 10 -
21.10.2018 14:00:00 22,5 17,7 8 4 ONO 1017,2 10 -
21.10.2018 13:00:00 22,0 19,0 8 4 O - 10 -
21.10.2018 12:00:00 - - - - - - - -
21.10.2018 11:00:00 21,3 18,5 9 5 OSO 1018,6 10 0,0
21.10.2018 10:00:00 21,0 18,0 11 6 SSO - 10 -
21.10.2018 09:00:00 19,0 17,0 5 3 S - 10 -
21.10.2018 08:00:00 18,0 16,2 4 2 - 1018,2 10 -
21.10.2018 07:00:00 19,0 17,0 4 2 SE - 9 -
21.10.2018 06:00:00 19,0 17,0 5 3 SSE - 8 -
21.10.2018 05:00:00 18,5 17,1 9 5 SE 1018,5 7 0,0
21.10.2018 04:00:00 18,0 17,0 5 3 SSE - 8 -
21.10.2018 03:00:00 18,0 17,0 8 4 SSE - 8 -
21.10.2018 02:00:00 19,3 16,7 8 4 ESE 1019,3 8 -
21.10.2018 01:00:00 19,0 17,0 5 3 S - 9 -
21.10.2018 00:00:00 20,0 17,0 8 4 S - 10 -
20.10.2018 23:00:00 20,0 18,0 8 4 E 1020,2 10 0,0
20.10.2018 22:00:00 21,0 18,0 9 5 ESE - 10 -
20.10.2018 21:00:00 21,0 19,0 16 9 ENE - 10 -
20.10.2018 20:00:00 21,8 19,0 21 11 NE 1019,5 10 -
20.10.2018 19:00:00 22,0 20,0 21 11 NE - 10 -
20.10.2018 18:00:00 22,0 20,0 18 10 NE - 10 -
20.10.2018 17:00:00 22,7 20,1 21 11 NE 1019,1 10 0,0
20.10.2018 16:00:00 23,0 20,0 18 10 NE - 10 -
20.10.2018 15:00:00 23,0 21,0 13 7 NNE - 10 -
20.10.2018 14:00:00 23,4 20,5 8 4 NO 1019,8 10 -
20.10.2018 13:00:00 22,0 20,0 9 5 O - 10 -
20.10.2018 12:00:00 22,0 20,0 8 4 OSO - 10 -
20.10.2018 11:00:00 22,1 19,4 9 5 OSO 1020,0 10 0,0
20.10.2018 10:00:00 22,0 19,0 9 5 SSO - 9 -
20.10.2018 09:00:00 20,0 19,0 5 3 S - 9 -
20.10.2018 08:00:00 18,6 17,4 5 3 SSE 1018,4 9 -
20.10.2018 07:00:00 19,0 17,0 5 3 SSO - 10 -
20.10.2018 06:00:00 19,0 18,0 5 3 S - 10 -
20.10.2018 05:00:00 19,0 17,3 5 3 SO 1017,8 10 0,0
20.10.2018 04:00:00 19,0 17,0 5 3 S - 10 -
20.10.2018 03:00:00 19,0 17,0 4 2 - - 10 -
20.10.2018 02:00:00 19,2 17,6 4 2 SSE 1017,7 10 -
20.10.2018 01:00:00 20,0 18,0 8 4 SSE - 10 -
20.10.2018 00:00:00 20,0 18,0 8 4 S - 10 -
19.10.2018 23:00:00 20,0 18,1 9 5 S 1016,9 10 0,0
19.10.2018 22:00:00 22,0 19,0 9 5 SO - 10 -
19.10.2018 21:00:00 22,0 20,0 15 8 SSO - 10 -
19.10.2018 20:00:00 21,9 19,4 16 9 SO 1015,2 10 -
19.10.2018 19:00:00 23,0 19,0 4 2 - - 10 -
19.10.2018 18:00:00 24,0 18,0 18 10 E - 10 -
19.10.2018 17:00:00 24,3 18,9 21 11 ENE 1013,1 10 0,0
19.10.2018 16:00:00 24,0 19,0 22 12 ENE - 10 -
19.10.2018 15:00:00 25,0 19,0 22 12 ENE - 10 -
19.10.2018 14:00:00 24,9 17,8 24 13 ENE 1012,3 10 -
19.10.2018 13:00:00 24,0 18,0 9 5 - - 10 -
19.10.2018 12:00:00 24,0 18,0 22 12 ENE - 10 -
19.10.2018 11:00:00 24,1 17,4 18 10 E 1012,1 10 0,0
19.10.2018 10:00:00 23,0 17,0 9 5 E - 10 -
19.10.2018 09:00:00 22,0 17,0 15 8 E - 10 -
19.10.2018 08:00:00 20,9 15,9 16 9 ENE 1010,6 10 -
19.10.2018 07:00:00 20,0 14,0 8 4 NE - 10 -
19.10.2018 06:00:00 19,0 14,0 8 4 E - 10 -
19.10.2018 05:00:00 20,4 13,5 13 7 E 1010,0 10 0,0
19.10.2018 04:00:00 22,0 14,0 5 3 S - 10 -
19.10.2018 03:00:00 22,0 12,0 8 4 - - 10 -
19.10.2018 02:00:00 20,5 14,3 11 6 SE 1010,3 10 -
19.10.2018 01:00:00 22,0 16,0 15 8 SO - 10 -
19.10.2018 00:00:00 21,0 13,0 11 6 NE - 10 -
18.10.2018 23:00:00 19,9 12,9 8 4 SSE 1009,6 10 0,0
18.10.2018 22:00:00 21,0 14,0 13 7 SSO - 10 -
18.10.2018 21:00:00 21,0 12,0 15 8 NE - 10 -
18.10.2018 20:00:00 21,2 10,7 13 7 SSE 1009,6 10 -
18.10.2018 19:00:00 20,0 12,0 22 12 SSE - 10 -
18.10.2018 18:00:00 19,0 13,0 13 7 S - 10 -
18.10.2018 17:00:00 18,3 14,2 24 13 S 1009,4 9 0,0
18.10.2018 16:00:00 23,0 19,0 16 9 NE - 9 -
18.10.2018 15:00:00 23,0 19,0 16 9 N - 10 -
18.10.2018 14:00:00 22,0 18,0 15 8 E - 10 -
18.10.2018 13:00:00 24,0 17,0 8 4 OSO - 10 -
18.10.2018 12:00:00 26,0 14,0 18 10 ENE - 10 -
18.10.2018 11:00:00 24,5 14,5 22 12 ENE 1008,5 10 0,0
18.10.2018 10:00:00 25,0 14,0 31 17 E - 10 -
18.10.2018 09:00:00 25,0 14,0 31 17 E - 10 -
18.10.2018 08:00:00 24,3 13,5 9 5 SSE 1008,0 10 -
18.10.2018 07:00:00 22,0 14,0 8 4 - - 10 -
18.10.2018 06:00:00 22,0 14,0 26 14 ENE - 10 -
18.10.2018 05:00:00 22,2 14,7 29 16 E 1007,3 10 0,0
18.10.2018 04:00:00 23,0 14,0 9 5 NE - 10 -
18.10.2018 03:00:00 21,0 15,0 8 4 NE - 10 -
18.10.2018 02:00:00 21,9 14,4 13 7 ENE 1010,1 10 -
18.10.2018 01:00:00 22,0 17,0 9 5 N - 10 -
18.10.2018 00:00:00 21,0 17,0 4 2 - - 10 -
17.10.2018 23:00:00 22,3 16,2 4 2 - 1011,8 10 0,0
17.10.2018 22:00:00 21,0 18,0 9 5 ESE - 10 -
17.10.2018 21:00:00 22,0 17,0 18 10 ENE - 10 -
17.10.2018 20:00:00 22,1 19,0 4 2 - 1011,8 10 -
17.10.2018 19:00:00 23,0 17,0 5 3 - - 10 -
17.10.2018 18:00:00 24,0 18,0 8 4 - - 10 -
17.10.2018 17:00:00 24,5 17,8 15 8 ENE 1011,6 10 0,0
17.10.2018 16:00:00 25,0 18,0 16 9 ENE - 10 -
17.10.2018 15:00:00 25,0 18,0 15 8 NE - 10 -
17.10.2018 14:00:00 24,0 17,6 15 8 NE 1012,8 10 -
17.10.2018 13:00:00 23,0 20,0 8 4 N - 10 -
17.10.2018 12:00:00 23,0 19,0 9 5 OSO - 10 -
17.10.2018 11:00:00 22,6 18,2 9 5 OSO 1014,7 10 0,0
17.10.2018 10:00:00 22,0 18,0 8 4 SSO - 10 -
17.10.2018 09:00:00 20,0 18,0 11 6 S - 10 -
17.10.2018 08:00:00 19,7 17,1 5 3 ESE 1014,4 10 -
17.10.2018 07:00:00 20,0 17,0 4 2 - - 10 -
17.10.2018 06:00:00 20,0 17,0 2 1 - - 10 -
17.10.2018 05:00:00 20,3 16,4 5 3 S 1014,6 10 0,0
17.10.2018 04:00:00 20,0 17,0 5 3 S - 10 -
17.10.2018 03:00:00 21,0 17,0 21 11 SO - 10 -
17.10.2018 02:00:00 20,3 17,8 8 4 SO 1015,9 10 -
17.10.2018 01:00:00 20,0 18,0 9 5 SSE - 10 -
17.10.2018 00:00:00 20,0 18,0 9 5 SSE - 10 -
16.10.2018 23:00:00 20,4 18,2 8 4 S 1016,7 10 0,0
16.10.2018 22:00:00 21,0 20,0 2 1 - - 10 -
16.10.2018 21:00:00 22,0 19,0 2 1 - - 10 -
16.10.2018 20:00:00 21,9 18,6 4 2 - 1016,4 10 -
16.10.2018 19:00:00 22,0 19,0 5 3 SE - 10 -
16.10.2018 18:00:00 22,0 20,0 15 8 ENE - 10 -
16.10.2018 17:00:00 22,7 20,1 11 6 E 1015,7 10 0,0
16.10.2018 16:00:00 24,0 19,0 13 7 ENE - 10 -
16.10.2018 15:00:00 24,0 19,0 13 7 ENE - 10 -
16.10.2018 14:00:00 23,4 18,8 15 8 NE 1015,3 10 -
16.10.2018 13:00:00 24,0 16,0 13 7 NE - 10 -
16.10.2018 12:00:00 23,0 18,0 9 5 NNE - 10 -
16.10.2018 11:00:00 22,7 17,5 4 2 - 1016,1 10 0,0
16.10.2018 10:00:00 21,0 18,0 11 6 SO - 10 -
16.10.2018 09:00:00 21,0 18,0 8 4 E - 10 -

tt = Temperatura
td = dewpoint
ff = velocità del vento
dd = direzione del vento
ppp = reduced air pressure
vv = visibility
rr = precipitazioni

Stazioni seguenti

WeatherPro
AMSI
MeteoEarth